Simultaneous Nadir Overpasses (SNOs) Predictions

Prediction of SNOs between METOP-A and TERRA Satellite Orbit:

Table of predicted SNOs for the next 14.0 days since TLE Epoch: 8/11/2016
Index Date (METOP-A) Time (METOP-A) Lat,Lon (METOP-A) SZA (METOP-A ) Date (TERRA) Time (TERRA) Lat,Lon (TERRA) SZA (TERRA ) Distance(km) Time Diff (sec)
1 08/14/2016 10:35:27 -81.33,-111.26 110.06 08/14/2016 10:36:18 -81.33,-111.25 110.03 0.69 51
2 08/14/2016 11:26:06 81.33, 56.58 70.02 08/14/2016 11:25:44 81.33, 56.42 69.99 2.59 22
3 08/17/2016 06:09:49 -81.32, -45.24 109.21 08/17/2016 06:10:32 -81.32, -45.07 109.17 2.82 43
4 08/17/2016 07:00:27 81.33, 122.98 70.92 08/17/2016 06:59:57 81.34, 122.96 70.90 0.81 30
5 08/20/2016 01:44:09 -81.33, 21.56 108.23 08/20/2016 01:44:45 -81.32, 21.43 108.23 2.12 36
6 08/20/2016 02:34:48 81.33,-170.63 71.84 08/20/2016 02:34:10 81.34,-170.54 71.84 1.75 38
7 08/22/2016 21:18:29 -81.33, 87.94 107.28 08/22/2016 21:18:57 -81.32, 87.88 107.28 1.02 28
8 08/22/2016 22:09:08 81.33,-104.25 72.80 08/22/2016 22:08:22 81.34,-104.10 72.80 2.69 46
9 08/25/2016 16:52:50 -81.33, 154.30 106.30 08/25/2016 16:53:10 -81.32, 154.28 106.30 0.82 20




NCC Satellite Simultaneous Nadir Overpasses (SNOs) Prediction Service
